Flag for Germany Weather past 2 weeks in Munich, Bavaria, Germany

34 °F

Snow. More clouds than sun.

Feels Like: 24 °F
Forecast: 32 / 45 °F
Wind: 14 mph from West

Location: Munich / Franz Josef Strauss Airport

Current Time: Nov 28, 2015 at 11:07:16 AM

Latest Report: Nov 28, 2015 at 10:20 AM

Visibility: 1 mi

Pressure: 29.92 "Hg (28.02 "Hg at 526m altitude)

Humidity: 87%

Dew point: 30 °F

Location of MunichLocation

Historic Weather in Munich — Graph


Munich temperature yesterday

Maximum temperature yesterday: 36 °F (at 1:50 PM)
Minimum temperature yesterday: 27 °F (at 12:20 AM)
Average temperature yesterday: 31 °F

Past Weeks' High & Low Weather Summary

High66 °F (Nov 16, 12:20 PM)100% (Nov 17, 1:20 AM)30.45 "Hg (Nov 17, 1:20 AM)
Low21 °F (Nov 24, 3:20 AM)43% (Nov 16, 12:50 PM)29.42 "Hg (Nov 21, 1:20 PM)
Average43 °F80%29.98 "Hg
* Reported Nov 13 9:20 AM — Nov 28 9:50 AM, Munich, Weather by CustomWeather, © 2015

Note: Actual official high and low records may vary slightly from our data, if they occured in-between our weather recording intervals... More about our weather records


Munich weather history for previous 24 hours

Time TempWeatherWind HumidityBarometerVisibility
9:50 AM
Sat, Nov 28
34 °FLight snow. Partly sunny.13 mph75%29.92 "HgN/A
9:20 AM34 °FSunny.12 mph75%29.89 "Hg10 mi
8:50 AM32 °FSunny.9 mph80%29.89 "Hg10 mi
8:20 AM30 °FSunny.8 mph80%29.89 "Hg10 mi
7:20 AM30 °FPassing clouds.10 mph80%29.89 "HgN/A
6:50 AM32 °FPassing clouds.10 mph80%29.89 "HgN/A
6:20 AM32 °FOvercast.16 mph87%29.89 "HgN/A
5:50 AM32 °FOvercast.10 mph87%29.89 "HgN/A
5:20 AM32 °FOvercast.13 mph87%29.89 "HgN/A
4:50 AM32 °FOvercast.7 mph93%29.89 "HgN/A
4:20 AM32 °FOvercast.6 mph100%29.89 "HgN/A
3:50 AM30 °FOvercast.5 mph100%29.89 "Hg4 mi
3:20 AM30 °FPassing clouds.2 mph100%29.92 "Hg4 mi
2:50 AM30 °FPassing clouds.3 mph100%29.92 "Hg4 mi
2:20 AM30 °FPartly cloudy.5 mph100%29.92 "Hg4 mi
1:50 AM30 °FPartly cloudy.2 mph100%29.92 "Hg4 mi
1:20 AM30 °FMostly cloudy.2 mph100%29.95 "Hg4 mi
12:50 AM30 °FLow clouds.2 mph100%29.95 "Hg4 mi
11:50 PM
Fri, Nov 27
30 °FOvercast.No wind100%29.95 "Hg4 mi
11:20 PM28 °FFog.No wind100%29.95 "Hg4 mi
10:50 PM28 °FFog.1 mph100%29.95 "Hg4 mi
10:20 PM28 °FFog.No wind100%29.95 "Hg4 mi
9:50 PM28 °FFog.2 mph100%29.95 "Hg4 mi
9:20 PM28 °FFog.1 mph100%29.95 "Hg4 mi
8:50 PM28 °FFog.3 mph100%29.95 "Hg5 mi
8:20 PM28 °FFog.5 mph100%29.98 "Hg6 mi
7:50 PM28 °FFog.No wind100%29.98 "Hg6 mi
7:20 PM28 °FFog.2 mph100%29.98 "Hg6 mi
6:50 PM30 °FPassing clouds.No wind100%29.98 "Hg6 mi
6:20 PM30 °FPassing clouds.2 mph100%29.98 "Hg6 mi
5:50 PM30 °FPassing clouds.No wind100%29.98 "Hg6 mi
5:20 PM30 °FPassing clouds.1 mph93%30.01 "Hg6 mi
4:50 PM32 °FPassing clouds.2 mph93%30.01 "Hg6 mi
4:20 PM34 °FPartly sunny.2 mph87%30.01 "HgN/A
3:50 PM36 °FPartly sunny.5 mph81%30.01 "HgN/A
3:20 PM36 °FPartly sunny.3 mph81%30.01 "HgN/A
2:50 PM36 °FBroken clouds.5 mph87%30.01 "HgN/A
2:20 PM36 °FBroken clouds.5 mph87%30.01 "Hg5 mi
1:50 PM36 °FBroken clouds.2 mph93%30.04 "Hg4 mi
1:20 PM34 °FFog.2 mph100%30.04 "Hg4 mi
12:50 PM34 °FFog.3 mph100%30.04 "Hg2 mi
12:20 PM34 °FFog.1 mph100%30.07 "Hg1 mi
11:50 AM34 °FChilly.3 mph100%30.07 "Hg1 mi
11:20 AM34 °FFog.3 mph100%30.07 "Hg0 mi
Weather by CustomWeather, © 2015

See weather overviewHow to use our weather pages